This is the latest recevied weather packets stored in our database for station/object KO4LCK. If no packets are shown the sender has not sent any weather packets the latest 10 day(s).
| Time | Temp. | Humidity | Pressure | Rain* | Wind** | Luminosity | Snow |
|---|---|---|---|---|---|---|---|
| 1777325137 | 27.22° C | 46% | 1018.9 hPa | 0 mm | - | 389 W/m² | - |
| 1777324832 | 27.22° C | 46% | 1018.8 hPa | 0 mm | - | 405 W/m² | - |
| 1777324531 | 27.22° C | 46% | 1018.8 hPa | 0 mm | - | 418 W/m² | - |
| 1777324227 | 27.22° C | 46% | 1018.9 hPa | 0 mm | - | 441 W/m² | - |
| 1777323926 | 27.22° C | 46% | 1018.8 hPa | 0 mm | - | 456 W/m² | - |
| 1777323622 | 27.78° C | 46% | 1018.6 hPa | 0 mm | - | 463 W/m² | - |
| 1777323319 | 27.22° C | 45% | 1018.6 hPa | 0 mm | - | 481 W/m² | - |
| 1777323018 | 27.78° C | 46% | 1018.8 hPa | 0 mm | - | 499 W/m² | - |
| 1777322715 | 27.22° C | 46% | 1018.6 hPa | 0 mm | - | 517 W/m² | - |
| 1777322414 | 27.78° C | 45% | 1018.6 hPa | 0 mm | - | 479 W/m² | - |
| 1777322109 | 27.22° C | 46% | 1018.5 hPa | 0 mm | - | 539 W/m² | - |
| 1777321806 | 27.22° C | 46% | 1018.6 hPa | 0 mm | - | 552 W/m² | - |
| 1777321502 | 27.22° C | 45% | 1018.6 hPa | 0 mm | - | 574 W/m² | - |
| 1777321200 | 27.22° C | 46% | 1018.7 hPa | 0 mm | - | 584 W/m² | - |
| 1777320897 | 27.22° C | 46% | 1018.8 hPa | 0 mm | - | 600 W/m² | - |
| 1777320595 | 26.67° C | 46% | 1018.9 hPa | 0 mm | - | 604 W/m² | - |
| 1777320292 | 26.67° C | 46% | 1019 hPa | 0 mm | - | 623 W/m² | - |
| 1777319988 | 27.22° C | 45% | 1019 hPa | 0 mm | - | 634 W/m² | - |
| 1777319686 | 27.22° C | 47% | 1018.9 hPa | 0 mm | - | 648 W/m² | - |
| 1777319382 | 26.67° C | 46% | 1019.2 hPa | 0 mm | - | 659 W/m² | - |
| 1777319079 | 27.22° C | 45% | 1019 hPa | 0 mm | - | 665 W/m² | - |
| 1777318777 | 26.67° C | 46% | 1019.1 hPa | 0 mm | - | 678 W/m² | - |
| 1777318472 | 26.67° C | 47% | 1019.2 hPa | 0 mm | - | 690 W/m² | - |
| 1777318169 | 26.67° C | 45% | 1019.3 hPa | 0 mm | - | 697 W/m² | - |
| 1777317867 | 26.11° C | 47% | 1019.2 hPa | 0 mm | - | 706 W/m² | - |
* Rain latest hour (hover to see other rain measurements)
** Current wind speed in m/s (hover to see current wind gust speed)